{"data":{"norad_id":59093,"intl_designator":"2024-041V","name":"STARLINK-31343","alt_names":[],"object_type":"PAYLOAD","status":"ACTIVE","operator":null,"country":"US","launch_date":"2024-02-29","launch_site_code":"AFETR","launch_vehicle":null,"mission":null,"orbit_class":"UNKNOWN","rcs_meters":null,"size_class":null,"mass_kg":null,"dimensions":null,"purposes":["comms"],"wikipedia_slug":null,"has_3d_model":false,"image_url":null,"decayed_at":null,"tle_current":{"epoch":"2026-05-24T23:08:14.841024Z","epoch_age_seconds":68299,"freshness":"FRESH","line1":"1 59093U 24041V   26144.96406066  .00005273  00000+0  20100-3 0  9993","line2":"2 59093  42.9978 240.2024 0001968 270.5886  89.4740 15.27581757125986","mean_motion":15.27581757,"eccentricity":0.0001968,"inclination_deg":42.9978,"raan_deg":240.2024,"arg_perigee_deg":270.5886,"mean_anomaly_deg":89.474,"bstar":0.000201,"rev_number":12598,"period_min":94.266640289551,"perigee_km":481.6935545663,"apogee_km":484.39411534294,"semimajor_km":6861.1808349546,"source":"CELESTRAK","updated_at":"2026-05-25T13:38:18.831456Z"}}}